VE3HOA Weather Reports


Display with metric or nautical units.
time (UTC)temp
F
wind
direction
speed
MPH
gust
MPH
rain 1hr
in
rain 24hr
in
rain mn
in
humidity
%
barometer
mb
20260510022050 52 175 5.0 16.0 0.03 0.03 0.03 87 1003.3
20260510021556 52 171 4.0 11.0 0.03 0.03 0.03 87 1003.3
20260510021047 52 185 5.0 11.0 0.03 0.03 0.03 86 1003.3
20260510020549 52 250 2.0 7.0 0.03 0.03 0.03 85 1003.3
20260510020053 53 176 2.0 9.0 0.03 0.03 0.03 83 1003.2
20260510015550 54 236 4.0 14.0 0.01 0.01 0.01 79 1003.3
20260510015049 54 216 6.0 13.0 0.00 0.00 0.00 76 1002.9
20260510014553 56 176 7.0 14.0 0.00 0.00 0.00 64 1002.8
20260510014049 57 178 7.0 15.0 0.00 0.00 0.00 63 1003.0
20260510013549 57 123 9.0 15.0 0.00 0.00 0.00 63 1002.7
20260510013054 57 101 6.0 15.0 0.00 0.00 0.00 62 1002.8
20260510012552 57 149 6.0 15.0 0.00 0.00 0.00 61 1002.8
20260510012052 57 164 7.0 15.0 0.00 0.00 0.00 61 1002.9
20260510011552 57 160 5.0 12.0 0.00 0.00 0.00 60 1002.9
20260510011047 57 148 6.0 10.0 0.00 0.00 0.00 60 1002.9
20260510010549 57 107 5.0 10.0 0.00 0.00 0.00 59 1002.9
20260510010055 57 146 4.0 11.0 0.00 0.00 0.00 58 1002.9
20260510005551 57 145 5.0 11.0 0.00 0.00 0.00 58 1003.0
20260510005049 57 148 5.0 11.0 0.00 0.00 0.00 57 1002.9
20260510004553 57 126 5.0 11.0 0.00 0.00 0.00 57 1002.9
20260510004048 57 152 4.0 10.0 0.00 0.00 0.00 55 1002.9
20260510003548 58 159 4.0 12.0 0.00 0.00 0.00 55 1002.9
20260510003059 58 166 6.0 12.0 0.00 0.00 0.00 55 1003.1
20260510002547 58 138 5.0 12.0 0.00 0.00 0.00 55 1003.0
20260510002048 58 144 6.0 14.0 0.00 0.00 0.00 55 1003.1
20260510001556 58 162 7.0 14.0 0.00 0.00 0.00 55 1003.1
20260510001049 59 156 5.0 14.0 0.00 0.00 0.00 54 1003.2
20260510000548 59 152 7.0 13.0 0.00 0.00 0.00 54 1003.3
20260510000053 59 167 6.0 16.0 0.00 0.00 0.00 53 1003.2
20260509235550 59 159 7.0 16.0 0.00 0.00 0.00 52 1003.4
20260509235048 59 169 6.0 16.0 0.00 0.00 0.00 51 1003.5
20260509234554 59 191 5.0 16.0 0.00 0.00 0.00 49 1003.5
20260509234049 59 205 7.0 16.0 0.00 0.00 0.00 48 1003.6
20260509233551 59 179 8.0 17.0 0.00 0.00 0.00 47 1003.6
20260509233054 59 173 8.0 17.0 0.00 0.00 0.00 46 1003.6
20260509232548 59 165 7.0 16.0 0.00 0.00 0.00 45 1003.7
20260509232051 60 138 7.0 16.0 0.00 0.00 0.00 45 1003.8
20260509231556 60 173 6.0 14.0 0.00 0.00 0.00 45 1004.0
20260509231048 60 179 6.0 16.0 0.00 0.00 0.00 45 1003.9
20260509230548 60 156 7.0 17.0 0.00 0.00 0.00 44 1003.9
20260509230059 60 169 5.0 17.0 0.00 0.00 0.00 44 1003.9
20260509225550 60 238 6.0 16.0 0.00 0.00 0.00 43 1003.8
20260509225052 60 169 5.0 16.0 0.00 0.00 0.00 42 1003.9
20260509224601 60 215 7.0 19.0 0.00 0.00 0.00 41 1003.9
20260509224052 60 178 5.0 20.0 0.00 0.00 0.00 41 1003.8
20260509223549 60 200 10.0 20.0 0.00 0.00 0.00 41 1003.8
20260509223058 61 244 6.0 13.0 0.00 0.00 0.00 43 1003.9
20260509222551 61 234 7.0 13.0 0.00 0.00 0.00 43 1003.8
20260509222048 61 155 4.0 20.0 0.00 0.00 0.00 43 1003.9
20260509221557 61 220 6.0 23.0 0.00 0.00 0.00 42 1003.8
20260509221047 61 163 7.0 23.0 0.00 0.00 0.00 41 1003.8
20260509220550 61 185 6.0 18.0 0.00 0.00 0.00 41 1003.7
20260509220107 61 212 5.0 18.0 0.00 0.00 0.00 40 1003.8
20260509215548 61 203 7.0 18.0 0.00 0.00 0.00 39 1003.8
20260509215049 61 229 6.0 15.0 0.00 0.00 0.00 39 1003.7
20260509214600 61 215 7.0 17.0 0.00 0.00 0.00 37 1003.7
20260509214048 61 178 8.0 18.0 0.00 0.00 0.00 37 1003.6
20260509213640 62 194 8.0 20.0 0.00 0.00 0.00 38 1003.7
20260509213122 62 211 6.0 20.0 0.00 0.00 0.00 37 1003.7
20260509212549 62 231 7.0 18.0 0.00 0.00 0.00 37 1003.9
20260509212052 62 223 7.0 19.0 0.00 0.00 0.00 36 1004.0
20260509211556 63 175 10.0 20.0 0.00 0.00 0.00 38 1003.8
20260509211049 63 229 7.0 21.0 0.00 0.00 0.00 38 1003.8
20260509210549 64 181 10.0 25.0 0.00 0.00 0.00 37 1003.9
20260509210104 65 186 10.0 25.0 0.00 0.00 0.00 36 1003.9
20260509205549 65 182 13.0 24.0 0.00 0.00 0.00 34 1003.9
20260509205048 65 192 9.0 26.0 0.00 0.00 0.00 37 1003.7
20260509204555 65 186 10.0 26.0 0.00 0.00 0.00 39 1003.7
20260509204049 66 209 6.0 18.0 0.00 0.00 0.00 39 1003.7
20260509203548 64 134 7.0 19.0 0.00 0.00 0.00 42 1003.8
20260509203054 64 192 7.0 19.0 0.00 0.00 0.00 41 1003.9
20260509202549 64 165 9.0 19.0 0.00 0.00 0.00 40 1004.0
20260509202049 64 147 9.0 22.0 0.00 0.00 0.00 39 1003.9
20260509201552 64 157 10.0 22.0 0.00 0.00 0.00 36 1003.9
20260509201048 65 180 12.0 22.0 0.00 0.00 0.00 35 1003.9
20260509200552 65 157 11.0 20.0 0.00 0.00 0.00 35 1003.9
20260509200100 65 176 12.0 23.0 0.00 0.00 0.00 34 1004.0
20260509195546 66 164 10.0 23.0 0.00 0.00 0.00 33 1004.2
20260509195050 66 198 8.0 21.0 0.00 0.00 0.00 33 1004.2
20260509194556 65 200 8.0 21.0 0.00 0.00 0.00 32 1004.2
20260509194047 65 232 6.0 21.0 0.00 0.00 0.00 31 1004.2
20260509193549 65 127 10.0 27.0 0.00 0.00 0.00 30 1004.2
20260509193055 65 183 9.0 27.0 0.00 0.00 0.00 31 1004.2
20260509192549 66 142 7.0 21.0 0.00 0.00 0.00 29 1004.3
20260509192048 66 197 12.0 21.0 0.00 0.00 0.00 30 1004.4
20260509191555 67 157 9.0 21.0 0.00 0.00 0.00 28 1004.5
20260509191049 67 99 11.0 23.0 0.00 0.00 0.00 27 1004.4
20260509190545 67 165 6.0 23.0 0.00 0.00 0.00 26 1004.6
20260509190057 66 136 9.0 25.0 0.00 0.00 0.00 26 1004.7
20260509185548 66 157 12.0 25.0 0.00 0.00 0.00 27 1004.7
20260509185048 67 133 12.0 24.0 0.00 0.00 0.00 26 1004.7
20260509184555 66 153 9.0 23.0 0.00 0.00 0.00 28 1004.9
20260509184046 65 157 13.0 23.0 0.00 0.00 0.00 27 1005.0
20260509183549 67 176 11.0 22.0 0.00 0.00 0.00 26 1004.9
20260509183058 66 172 8.0 19.0 0.00 0.00 0.00 29 1005.2
20260509182552 66 185 9.0 19.0 0.00 0.00 0.00 26 1005.3
20260509182048 65 170 8.0 19.0 0.00 0.00 0.00 27 1005.4
20260509181601 65 168 9.0 24.0 0.00 0.00 0.00 26 1005.5
20260509181049 65 164 14.0 24.0 0.00 0.00 0.00 27 1005.7
20260509180549 65 97 13.0 24.0 0.00 0.00 0.00 26 1005.5
20260509180100 66 140 6.0 20.0 0.00 0.00 0.00 29 1005.9
20260509175548 64 182 9.0 20.0 0.00 0.00 0.00 28 1005.8
20260509175048 65 170 8.0 23.0 0.00 0.00 0.00 28 1005.9
20260509174559 65 229 10.0 23.0 0.00 0.00 0.00 27 1006.1
20260509174050 64 135 10.0 23.0 0.00 0.00 0.00 28 1006.0
20260509173548 64 150 13.0 24.0 0.00 0.00 0.00 28 1006.2
20260509173058 64 185 12.0 29.0 0.00 0.00 0.00 29 1006.2
20260509172549 64 178 12.0 29.0 0.00 0.00 0.00 29 1006.2
20260509172052 65 137 12.0 26.0 0.00 0.00 0.00 28 1006.3
20260509171556 64 159 8.0 20.0 0.00 0.00 0.00 29 1006.1
20260509171050 64 163 7.0 21.0 0.00 0.00 0.00 30 1006.1
20260509170549 64 160 12.0 21.0 0.00 0.00 0.00 28 1006.3
20260509170055 64 205 7.0 23.0 0.00 0.00 0.00 28 1006.3
20260509165549 63 164 11.0 19.0 0.00 0.00 0.00 28 1006.4
20260509165048 64 178 10.0 21.0 0.00 0.00 0.00 30 1006.7
20260509164606 63 137 10.0 25.0 0.00 0.00 0.00 30 1006.7
20260509164053 64 179 11.0 25.0 0.00 0.00 0.00 31 1006.7
20260509163551 63 169 8.0 16.0 0.00 0.00 0.00 30 1006.8
20260509163057 63 160 7.0 16.0 0.00 0.00 0.00 30 1007.0
20260509162553 63 160 7.0 18.0 0.00 0.00 0.00 31 1007.1
20260509162050 62 155 10.0 19.0 0.00 0.00 0.00 31 1007.2
20260509161603 62 180 9.0 21.0 0.00 0.00 0.00 31 1007.4
20260509161054 62 202 12.0 21.0 0.00 0.00 0.00 31 1007.4
20260509160553 62 158 14.0 21.0 0.00 0.00 0.00 31 1007.4
20260509160052 62 167 10.0 21.0 0.00 0.00 0.00 32 1007.4
20260509155550 61 206 11.0 22.0 0.00 0.00 0.00 33 1007.6
20260509155050 62 145 11.0 22.0 0.00 0.00 0.00 33 1007.7
20260509154607 61 149 13.0 21.0 0.00 0.00 0.00 33 1007.7
20260509154048 62 236 7.0 20.0 0.00 0.00 0.00 32 1007.9
20260509153548 61 165 10.0 21.0 0.00 0.00 0.00 33 1008.0
20260509153103 61 186 8.0 24.0 0.00 0.00 0.00 34 1008.0
20260509152547 62 195 11.0 24.0 0.00 0.00 0.00 34 1008.1
20260509152049 61 183 8.0 20.0 0.00 0.00 0.00 36 1008.2
20260509151555 60 169 6.0 15.0 0.00 0.00 0.00 38 1008.3
20260509151048 60 182 8.0 17.0 0.00 0.00 0.00 39 1008.4
20260509150548 60 175 7.0 17.0 0.00 0.00 0.00 38 1008.3
20260509150055 60 175 9.0 18.0 0.00 0.00 0.00 36 1008.5
20260509145549 59 205 9.0 18.0 0.00 0.00 0.00 35 1008.5
20260509145049 60 188 5.0 16.0 0.00 0.00 0.00 38 1008.6
20260509144556 59 254 10.0 22.0 0.00 0.00 0.00 40 1008.5
20260509144053 59 163 9.0 22.0 0.00 0.00 0.00 39 1008.6
20260509143549 59 172 10.0 20.0 0.00 0.00 0.00 39 1008.6
20260509143054 59 202 6.0 17.0 0.00 0.00 0.00 40 1008.7
20260509142549 58 179 7.0 18.0 0.00 0.00 0.00 41 1008.7
20260509142050 58 187 8.0 22.0 0.00 0.00 0.00 40 1008.7
20260509141556 58 229 6.0 22.0 0.00 0.00 0.00 42 1008.8
20260509141052 58 172 7.0 19.0 0.00 0.00 0.00 41 1008.8
20260509140549 57 202 10.0 20.0 0.00 0.00 0.00 43 1008.9
20260509135547 56 155 9.0 21.0 0.00 0.00 0.00 44 1008.9
20260509135050 56 184 8.0 21.0 0.00 0.00 0.00 43 1008.8
20260509134552 56 178 6.0 16.0 0.00 0.00 0.00 45 1009.0
20260509134050 56 172 7.0 15.0 0.00 0.00 0.00 45 1008.9
20260509133549 56 167 6.0 15.0 0.00 0.00 0.00 49 1008.9
20260509133053 54 213 8.0 12.0 0.00 0.00 0.00 49 1009.1
20260509132548 55 178 6.0 12.0 0.00 0.00 0.00 49 1009.1
20260509132048 54 159 5.0 11.0 0.00 0.00 0.00 49 1009.2
20260509131551 54 173 4.0 11.0 0.00 0.00 0.00 49 1009.3
20260509131049 53 226 5.0 11.0 0.00 0.00 0.00 50 1009.3
20260509130551 53 207 5.0 10.0 0.00 0.00 0.00 50 1009.4
20260509130051 52 196 3.0 11.0 0.00 0.00 0.00 51 1009.0
20260509125549 52 211 4.0 12.0 0.00 0.00 0.00 52 1009.6
20260509125049 51 191 5.0 14.0 0.00 0.00 0.00 51 1009.6
20260509124549 51 171 7.0 14.0 0.00 0.00 0.00 52 1009.3
20260509124049 51 137 2.0 12.0 0.00 0.00 0.00 55 1009.4
20260509123550 50 161 4.0 12.0 0.00 0.00 0.00 55 1009.4
20260509123056 49 198 5.0 9.0 0.00 0.00 0.00 56 1009.4
20260509122550 0 212 7.0 0.0 0.00 0.00 0.00 58 1009.3
20260509122324 48 182 4.0 10.0 0.00 0.00 0.00 58 1009.1
20260509121605 47 161 5.0 10.0 0.00 0.00 0.00 60 1009.2
20260509121049 46 190 5.0 10.0 0.00 0.00 0.00 61 1009.1
20260509120549 46 178 4.0 9.0 0.00 0.00 0.00 62 1009.2
20260509120112 46 155 3.0 10.0 0.00 0.00 0.00 63 1009.1
20260509115548 45 202 4.0 10.0 0.00 0.00 0.00 63 1009.1
20260509115049 44 195 4.0 10.0 0.00 0.00 0.00 65 1009.1
20260509114551 43 185 4.0 8.0 0.00 0.00 0.00 66 1009.2
20260509114049 43 192 3.0 8.0 0.00 0.00 0.00 67 1009.1
20260509113548 42 169 3.0 9.0 0.00 0.00 0.00 68 1009.1
20260509113056 42 160 4.0 10.0 0.00 0.00 0.00 69 1009.1
20260509112549 41 159 5.0 10.0 0.00 0.00 0.00 69 1009.0
20260509112049 41 174 5.0 10.0 0.00 0.00 0.00 69 1008.9
20260509111556 41 145 4.0 9.0 0.00 0.00 0.00 70 1009.0
20260509111049 40 162 5.0 9.0 0.00 0.00 0.00 70 1009.0
20260509110549 40 157 4.0 9.0 0.00 0.00 0.00 71 1008.9
20260509105551 39 164 4.0 8.0 0.00 0.00 0.00 72 1008.9
20260509105049 39 168 3.0 8.0 0.00 0.00 0.00 72 1008.9
20260509104556 39 165 3.0 7.0 0.00 0.00 0.00 72 1008.8
20260509104048 39 195 3.0 8.0 0.00 0.00 0.00 72 1008.8
20260509103548 39 160 3.0 8.0 0.00 0.00 0.00 72 1008.8
20260509103102 39 173 4.0 9.0 0.00 0.00 0.00 71 1008.7
20260509102549 39 179 5.0 10.0 0.00 0.00 0.00 71 1008.7
20260509102049 38 174 4.0 10.0 0.00 0.00 0.00 72 1008.7
20260509101601 38 161 4.0 9.0 0.00 0.00 0.00 72 1008.7
20260509101049 38 178 5.0 8.0 0.00 0.00 0.00 73 1008.7
20260509100548 37 152 4.0 8.0 0.00 0.00 0.00 74 1008.7
20260509100053 37 169 4.0 7.0 0.00 0.00 0.00 74 1008.7
20260509095548 37 175 4.0 7.0 0.00 0.00 0.00 74 1008.8
20260509095049 37 173 4.0 7.0 0.00 0.00 0.00 74 1008.8
20260509094552 37 169 4.0 8.0 0.00 0.00 0.00 74 1008.7
20260509094049 37 168 4.0 8.0 0.00 0.00 0.00 74 1008.7
20260509093549 37 147 3.0 7.0 0.00 0.00 0.00 74 1008.6
20260509093054 37 182 3.0 7.0 0.00 0.00 0.00 74 1008.6
20260509092552 37 168 3.0 7.0 0.00 0.00 0.00 73 1008.6
20260509092049 37 173 4.0 7.0 0.00 0.00 0.00 73 1008.6
20260509091622 37 172 3.0 7.0 0.00 0.00 0.00 73 1008.6
20260509091051 37 173 2.0 7.0 0.00 0.00 0.00 72 1008.6
20260509090553 37 196 3.0 7.0 0.00 0.00 0.00 72 1008.8
20260509090055 37 170 3.0 7.0 0.00 0.00 0.00 72 1008.7
20260509085549 37 184 3.0 8.0 0.00 0.00 0.00 72 1008.7
20260509085049 37 171 3.0 8.0 0.00 0.00 0.00 72 1008.7
20260509084554 37 189 3.0 7.0 0.00 0.00 0.00 72 1008.7
20260509084050 38 175 3.0 7.0 0.00 0.00 0.00 71 1008.7
20260509083551 38 161 3.0 8.0 0.00 0.00 0.00 71 1008.7
20260509083055 38 164 4.0 8.0 0.00 0.00 0.00 71 1008.7
20260509082550 37 184 4.0 7.0 0.00 0.00 0.00 71 1008.7
20260509082053 37 157 4.0 6.0 0.00 0.00 0.00 72 1008.8
20260509081552 37 164 3.0 6.0 0.00 0.00 0.00 72 1008.9
20260509081050 37 177 3.0 6.0 0.00 0.00 0.00 72 1008.9
20260509080551 37 141 3.0 6.0 0.00 0.00 0.00 72 1008.9
20260509080105 37 167 3.0 6.0 0.00 0.00 0.00 72 1008.9
20260509075549 37 173 3.0 6.0 0.00 0.00 0.00 72 1008.9
20260509075049 37 179 2.0 7.0 0.00 0.00 0.00 71 1008.9
20260509074554 37 175 3.0 7.0 0.00 0.00 0.00 71 1009.0
20260509074050 38 171 3.0 7.0 0.00 0.00 0.00 71 1009.0
20260509073549 38 169 3.0 7.0 0.00 0.00 0.00 71 1008.9
20260509073124 38 168 4.0 7.0 0.00 0.00 0.00 70 1009.0
20260509072553 38 184 4.0 7.0 0.00 0.00 0.00 70 1008.9
20260509072049 38 173 3.0 7.0 0.00 0.00 0.00 70 1008.9
20260509071551 38 169 4.0 7.0 0.00 0.00 0.00 69 1009.0
20260509071050 38 183 3.0 8.0 0.00 0.00 0.00 69 1009.1
20260509070552 38 155 4.0 8.0 0.00 0.00 0.00 69 1009.1
20260509070058 38 168 4.0 8.0 0.00 0.00 0.00 68 1008.9
20260509065549 39 199 3.0 8.0 0.00 0.00 0.00 68 1008.9
20260509065049 39 175 4.0 6.0 0.00 0.00 0.00 68 1009.0
20260509064551 39 144 3.0 6.0 0.00 0.00 0.00 67 1009.0
20260509064053 39 145 4.0 6.0 0.00 0.00 0.00 67 1009.0
20260509063549 39 174 3.0 6.0 0.00 0.00 0.00 66 1009.1
20260509063051 39 156 3.0 6.0 0.00 0.00 0.00 66 1009.2
20260509062549 39 184 2.0 5.0 0.00 0.00 0.00 65 1009.2
20260509062053 40 157 3.0 5.0 0.00 0.00 0.00 65 1009.2
20260509061620 40 157 4.0 5.0 0.00 0.00 0.00 64 1009.3
20260509061048 40 140 2.0 5.0 0.00 0.00 0.00 64 1009.2
20260509060548 41 155 3.0 5.0 0.00 0.00 0.00 64 1009.3
20260509060107 41 171 2.0 7.0 0.00 0.00 0.00 63 1009.3
20260509055548 42 173 3.0 7.0 0.00 0.00 0.00 63 1009.4
20260509055050 42 178 2.0 9.0 0.00 0.00 0.00 63 1009.3
20260509054611 42 169 3.0 9.0 0.00 0.00 0.00 62 1009.3
20260509054047 42 189 4.0 7.0 0.00 0.00 0.00 62 1009.3
20260509053548 42 173 3.0 7.0 0.00 0.00 0.00 62 1009.4
20260509053058 43 173 4.0 7.0 0.00 0.00 0.00 62 1009.4
20260509052548 43 175 4.0 6.0 0.00 0.00 0.00 61 1009.4
20260509052048 43 166 3.0 7.0 0.00 0.00 0.00 61 1009.3
20260509051556 43 168 2.0 7.0 0.00 0.00 0.00 60 1009.5
20260509051048 44 188 3.0 6.0 0.00 0.00 0.00 59 1009.4
20260509050552 44 179 2.0 7.0 0.00 0.00 0.00 58 1009.6
20260509050057 44 171 2.0 7.0 0.00 0.00 0.00 58 1009.6
20260509045548 44 184 3.0 7.0 0.00 0.00 0.00 57 1009.6
20260509045048 44 195 3.0 9.0 0.00 0.00 0.00 57 1009.5
20260509044550 45 194 3.0 9.0 0.00 0.00 0.00 57 1009.6
20260509044048 45 215 3.0 11.0 0.00 0.00 0.00 56 1009.5
20260509043549 45 211 3.0 11.0 0.00 0.00 0.00 56 1009.6
20260509043052 45 186 3.0 10.0 0.00 0.00 0.00 56 1009.7
20260509042553 45 240 4.0 10.0 0.00 0.00 0.00 57 1009.7
20260509042049 45 196 3.0 10.0 0.00 0.00 0.00 56 1009.6
20260509041552 45 231 3.0 8.0 0.00 0.00 0.00 56 1009.6
20260509041049 45 205 4.0 8.0 0.00 0.00 0.00 56 1009.5
20260509040548 45 229 3.0 8.0 0.00 0.00 0.00 56 1009.5
20260509040124 45 227 2.0 7.0 0.00 0.00 0.00 56 1009.5
20260509035548 46 234 3.0 8.0 0.00 0.00 0.00 55 1009.7
20260509035049 46 229 3.0 8.0 0.00 0.00 0.00 55 1009.6
20260509034556 46 188 2.0 8.0 0.00 0.00 0.00 56 1009.6
20260509034048 46 209 2.0 9.0 0.00 0.00 0.00 55 1009.6
20260509033548 46 198 3.0 9.0 0.00 0.00 0.00 55 1009.6
20260509033054 46 186 2.0 8.0 0.00 0.00 0.00 55 1009.6
20260509032548 46 194 3.0 13.0 0.00 0.00 0.00 56 1009.6
20260509032048 46 220 4.0 13.0 0.00 0.00 0.00 56 1009.6
20260509031600 46 196 3.0 10.0 0.00 0.00 0.00 57 1009.7
20260509031048 46 198 4.0 9.0 0.00 0.00 0.00 56 1009.6
20260509030548 46 205 3.0 10.0 0.00 0.00 0.00 58 1009.7
20260509025553 46 221 2.0 11.0 0.00 0.00 0.00 58 1009.6
20260509025049 46 187 5.0 11.0 0.00 0.00 0.00 58 1009.7
20260509024555 46 193 5.0 10.0 0.00 0.00 0.00 58 1009.8
20260509024051 46 189 4.0 8.0 0.00 0.00 0.00 58 1009.7
20260509023555 46 184 3.0 8.0 0.00 0.00 0.00 57 1009.6
20260509023059 46 207 3.0 10.0 0.00 0.00 0.00 57 1009.6
20260509022550 46 180 5.0 13.0 0.00 0.00 0.00 56 1009.7